Skip Page Navigation
NASA JPL Caltech
NASA Logo - Jet Propulsion Laboratory + View the NASA Portal
+ Near-Earth Object (NEO) Program
Search JPL
JPL Home Earth Solar System Stars & Galaxies Technology
JPL Solar System Dynamics
BODIES ORBITS EPHEMERIDES TOOLS PHYSICAL DATA DISCOVERY FAQ SITE MAP
JPL Small-Body Database Browser
Search: [ help ]  
279816 (2000 JE5)
Classification: Apollo [NEO, PHA]          SPK-ID: 2279816
Ephemeris | Orbit Diagram | Orbital Elements | Physical Parameters | Discovery Circumstances | Close-Approach Data ]

[ hide orbit diagram ]
Orbit Diagram
Note: Make sure you have Java enabled on your browser to see the applet. This applet is provided as a 3D orbit visualization tool. The applet was implemented using 2-body methods, and hence should not be used for determining accurate long-term trajectories (over several years or decades) or planetary encounter circumstances. For accurate long-term ephemerides, please instead use our Horizons system.
Orbit Viewer

Additional Notes: the orbits shown in the applet are color coded. The planets are white lines, and the asteroid/comet is a blue line. The bright white line indicates the portion of the orbit that is above the ecliptic plane, and the darker portion is below the ecliptic plane. Likewise for the asteroid/comet orbit, the light blue indicates the portion above the ecliptic plane, and the dark blue the portion below the ecliptic plane.

Orbit Viewer applet originally written and kindly provided by Osamu Ajiki (AstroArts), and further modified by Ron Baalke (JPL).


Orbital Elements at Epoch 2456400.5 (2013-Apr-18.0) TDB
Reference: JPL 22 (heliocentric ecliptic J2000)
 Element Value Uncertainty (1-sigma)   Units 
e .4006822073241276 9.2644e-08  
a 1.238299924194703 8.2595e-09 AU
q .7421351772390696 1.1346e-07 AU
i 50.73762454368028 6.5973e-05 deg
node 41.26308719028104 1.8871e-05 deg
peri 285.1805184488207 2.3071e-05 deg
M 77.60081097314853 3.1827e-05 deg
tp 2456292.007190549101
(2012-Dec-30.50719055)
4.3655e-05 JED
period 503.3118972923938
1.38
5.0357e-06
1.379e-08
d
yr
n .7152622497831832 7.1563e-09 deg/d
Q 1.734464671150337 1.1569e-08 AU
  Orbit Determination Parameters
   # obs. used (total)      143  
   data-arc span      4035 days (11.05 yr)  
   first obs. used      2000-05-01  
   last obs. used      2011-05-19  
   planetary ephem.      DE405  
   SB-pert. ephem.      SB405-CPV-2  
   condition code      0  
   fit RMS      .62208  
   data source      ORB  
   producer      Otto Matic  
   solution date      2013-Apr-29 15:41:18  

Additional Information
 Earth MOID = .0466492 AU 
 T_jup = 4.768 
[ show covariance matrix ]

Ephemeris | Orbit Diagram | Orbital Elements | Physical Parameters | Discovery Circumstances | Close-Approach Data ]

Physical Parameter Table
Parameter Symbol Value Units Sigma Reference Notes
absolute magnitude H 18.664 mag .8307 22 autocmod 2.5c

279816 (2000 JE5)          Discovered 2000-May-01 by LINEAR at Socorro (704)
Reference: 20110615/Numbers.arcLast Updated: 2011-06-23

[ show close-approach data ]
Ephemeris | Orbit Diagram | Orbital Elements | Physical Parameters | Discovery Circumstances | Close-Approach Data ]
ABOUT SSD CREDITS/AWARDS PRIVACY/COPYRIGHT GLOSSARY LINKS
FirstGov 2013-May-20 03:03 UT
(server date/time)  
NASA Home Page
Site Manager:   Donald K. Yeomans
Webmaster  Alan B. Chamberlin